GW2108 Weather Reports


time (UTC)temp
C
wind
direction
speed
KPH
gust
KPH
rain 1hr
cm
rain 24hr
cm
rain mn
cm
humidity
%
barometer
mb
20260504001602 27 9 0.0 0.0 0.00 0.00 0.00 30 1009.7
20260504000028 28 9 0.0 0.0 0.00 0.00 0.00 33 1009.8
20260503234543 28 9 0.0 0.0 0.00 0.00 0.00 33 1010.0
20260503233008 28 9 0.0 0.0 0.00 0.00 0.00 33 1010.1
20260503231551 28 9 0.0 0.0 0.00 0.00 0.00 32 1010.2
20260503230056 28 9 0.0 0.0 0.00 0.00 0.00 30 1010.6
20260503224614 30 9 0.0 0.0 0.00 0.00 0.00 30 1010.7
20260503223013 30 9 0.0 0.0 0.00 0.00 0.00 32 1010.9
20260503221554 29 9 0.0 0.0 0.00 0.00 0.00 31 1011.1
20260503220034 28 9 0.0 0.0 0.00 0.00 0.00 33 1011.3
20260503214553 28 9 0.0 0.0 0.00 0.00 0.00 32 1011.4
20260503213013 28 9 0.0 0.0 0.00 0.00 0.00 33 1011.5
20260503211549 28 9 0.0 0.0 0.00 0.00 0.00 37 1011.5
20260503210003 27 9 0.0 0.0 0.00 0.00 0.00 36 1011.7
20260503204545 27 9 0.0 0.0 0.00 0.00 0.00 34 1011.9
20260503203036 27 9 0.0 0.0 0.00 0.00 0.00 41 1012.1
20260503201502 27 9 0.0 0.0 0.00 0.00 0.00 38 1012.2
20260503200044 27 9 0.0 0.0 0.00 0.00 0.00 37 1012.4
20260503194537 27 9 0.0 0.0 0.00 0.00 0.00 42 1012.6
20260503193110 26 9 0.0 0.0 0.00 0.00 0.00 45 1012.8
20260503191557 25 9 0.0 0.0 0.00 0.00 0.00 43 1012.9
20260503190042 25 9 0.0 0.0 0.00 0.00 0.00 46 1013.2
20260503184559 24 9 0.0 0.0 0.00 0.00 0.00 47 1013.4
20260503183056 23 9 0.0 0.0 0.00 0.00 0.00 49 1013.6
20260503181555 23 9 0.0 0.0 0.00 0.00 0.00 51 1013.7
20260503180040 22 9 0.0 0.0 0.00 0.00 0.00 51 1014.0
20260503174518 21 9 0.0 0.0 0.00 0.00 0.00 56 1014.0
20260503173109 21 9 0.0 0.0 0.00 0.00 0.00 57 1014.1
20260503171534 20 9 0.0 0.0 0.00 0.00 0.00 61 1014.2
20260503081504 10 9 0.0 0.0 0.00 0.00 0.00 82 1015.1
20260503071505 11 9 0.0 0.0 0.00 0.00 0.00 79 1014.8
20260503054512 13 9 0.0 0.0 0.00 0.00 0.00 73 1014.3
20260503053035 14 9 0.0 0.0 0.00 0.00 0.00 70 1014.5
20260503051550 15 9 0.0 0.0 0.00 0.00 0.00 71 1014.3
20260503050003 15 9 0.0 0.0 0.00 0.00 0.00 69 1014.2
20260503044530 16 9 0.0 0.0 0.00 0.00 0.00 68 1014.1
20260503043013 16 9 0.0 0.0 0.00 0.00 0.00 66 1014.0
20260503041607 17 9 0.0 0.0 0.00 0.00 0.00 65 1013.8
20260503040032 17 9 0.0 0.0 0.00 0.00 0.00 62 1013.6
20260503034545 18 9 0.0 0.0 0.00 0.00 0.00 60 1013.4
20260503033117 18 9 0.0 0.0 0.00 0.00 0.00 59 1013.2
20260503031515 19 9 0.0 0.0 0.00 0.00 0.00 53 1013.1
20260503030035 20 9 0.0 0.0 0.00 0.00 0.00 53 1012.9
20260503024604 21 9 0.0 0.0 0.00 0.00 0.00 51 1012.9
20260503023029 21 9 0.0 0.0 0.00 0.00 0.00 50 1012.6
20260503021551 21 9 0.0 0.0 0.00 0.00 0.00 48 1012.7
20260503020025 22 9 0.0 0.0 0.00 0.00 0.00 49 1012.7
20260503014547 22 9 0.0 0.0 0.00 0.00 0.00 49 1012.6
20260503013058 23 9 0.0 0.0 0.00 0.00 0.00 45 1012.7
20260503011530 23 9 0.0 0.0 0.00 0.00 0.00 44 1012.8
20260503010050 23 9 0.0 0.0 0.00 0.00 0.00 45 1012.7
20260503004528 24 9 0.0 0.0 0.00 0.00 0.00 45 1012.9
20260503003044 24 9 0.0 0.0 0.00 0.00 0.00 41 1012.8